ASTROSAT

Last updated on Wed Oct 29 2025 00:03:35 GMT+0000 (Coordinated Universal Time)

1 40930U 15052A 25301.15485120 .00002631 00000+0 24239-3 0 9990 2 40930 5.9981 24.7710 0008829 318.0502 41.8950 14.81834778545346
UTC large
Height (km)
Speed (km/s)
/
Latitude / Longitude
Inclination (degrees)
Orbital Period (minutes)
Azimuth
Elevation
Range (km)
Doppler Factor

Next 0 passes for location: London (51.5072 / 0.1276)

Sorry there are no passes over London.